Location: Guadanolo
(41.9167°N, 12.9333°E)
Time: 12:32:46
(UTC+00:00)

Cosmos 1295 Rocket - Pass Details

Date: 16 September 2019
Orbit: 943 x 995 km, 82.9° (Epoch: 16 October)

Event Time Altitude Azimuth Distance (km) Brightness Sun altitude
Rises 18:53:37 0° 353° (N) 3,672 7.9 -18.4°
Reaches altitude 10° 18:56:09 10° 354° (N) 2,713 7.2 -18.8°
Maximum altitude 19:02:22 83° 82° (E) 969 4.4 -19.9°
Enters shadow 19:07:25 16° 170° (S) 2,271 6.1 -20.7°
